Regional Weather Roundup
Issued by NWS

Home | Current Version | Previous Version | Text Only | Print | Product List | Glossary On
Versions: 1 2 3 4 5 6 7 8 9 10 11 12 13 14 15 16 17 18 19 20 21 22 23 24 25 26 27 28 29 30 31 32 33 34 35 36 37 38 39 40 41 42 43 44 45 46 47 48 49 50
000
ASUS43 KMPX 190910
RWRMN
WEATHER ROUNDUP FOR MINNESOTA
NATIONAL WEATHER SERVICE TWIN CITIES/CHANHASSEN MN
300 AM CST FRI DEC 19 2014


NOTE: "FAIR" INDICATES FEW OR NO CLOUDS BELOW 12,000 FEET WITH NO
SIGNIFICANT WEATHER AND/OR OBSTRUCTIONS TO VISIBILITY. N/A MEANS
CURRENT SKY AND/OR WEATHER CONDITIONS ARE NOT AVAILABLE.

MNZ060>063-068>070-191000-
   Twin Cities Metro

CITY           SKY/WX    TMP DP  RH WIND       PRES   REMARKS
TWIN CITIES    CLOUDY    21  15  78 SE5       30.27F WCI  15
ST PAUL        CLOUDY    22  16  78 S7        30.29S WCI  13
CRYSTAL        CLOUDY    22  16  78 SE6       30.26S WCI  14
BLAINE         CLOUDY    23  19  86 SE5       30.26S WCI  17
LAKEVILLE      CLOUDY    19  16  86 SE5       30.26S WCI  13
EDEN PRAIRIE   CLOUDY    22  16  78 SE6       30.25F WCI  14
SOUTH ST PAUL  CLOUDY    23  17  78 CALM      30.27F
LAKE ELMO      CLOUDY    23  19  86 S3        30.27F
$$
MNZ001>005-007-008-013>017-022>024-027-028-191000-
   Northwest Minnesota

CITY           SKY/WX    TMP DP  RH WIND       PRES   REMARKS
BEMIDJI        CLOUDY    19  15  86 S7        30.16S WCI   9
HALLOCK        MOCLDY    21  19  93 S14       30.12R FOG     WCI   8
ROSEAU         CLOUDY    21  16  79 S10       30.14S WCI  10
WARROAD        CLOUDY    19  16  86 S9        30.15S WCI   9
THIEF RVR FALL CLOUDY    21  18  86 S8        30.13F WCI  12
CROOKSTON      PTCLDY    21  19  93 S13       30.15S WCI   9
FOSSTON        FLURRIES  18  16  93 SE8       30.14F WCI   7
DETROIT LAKES  CLOUDY    21  19  93 S9        30.15S WCI  11
MOORHEAD       LGT RAIN  23  23 100 SE12      30.15S WCI  12
PARK RAPIDS    CLOUDY    19  15  84 SE9       30.16S WCI   8
MAHNOMEN       CLOUDY    20  17  86 S8        30.14S WCI  10
$$
MNZ006-009>011-018-025>026-191000-
   North Central Minnesota

CITY           SKY/WX    TMP DP  RH WIND       PRES   REMARKS
BAUDETTE       CLOUDY    20  15  81 S5        30.16S WCI  13
FLAG ISLAND    CLOUDY    19  16  86 S14       30.15S WCI   6
INTL FALLS     CLOUDY    21  17  84 S5        30.18F WCI  15
WASKISH        CLOUDY    19  18  93 CALM      30.17S
BIG FORK       CLOUDY    21  18  86 S5        30.19S WCI  15
LONGVILLE      FLURRIES  19  16  86 S6        30.20S WCI  11
GRAND RAPIDS   CLOUDY    19  16  86 S9        30.20S WCI   9
CRANE LAKE     CLOUDY    21  19  93 S3        30.22F
ORR            CLOUDY    21  18  86 S7        30.17F WCI  13
COOK           FLURRIES  21  18  86 SE5       30.20S WCI  15
WALKER         CLOUDY    18  14  84 S5        30.17F WCI  11
$$
MNZ012-019>021-037-191000-
   Northeast Minnesota

CITY           SKY/WX    TMP DP  RH WIND       PRES   REMARKS
DULUTH         CLOUDY    20  17  88 SW6       30.22R WCI  12
ELY            CLOUDY    21  18  86 S6        30.20F WCI  14
HIBBING        CLOUDY    21  17  84 S5        30.21R WCI  15
EVELETH        MIX PCPN  23  21  93 S6        30.22R WCI  16
DULUTH HARBOR  CLOUDY    25  21  86 SW9       30.28F WCI  15
TWO HARBORS    CLOUDY    27  21  80 S6        30.22S WCI  20
SILVER BAY     CLOUDY    25  19  80 SE6       30.22S WCI  18
GRAND MARAIS     N/A     25  16  68 NE6       30.27F WCI  18
G MARAIS ARPRT CLOUDY    14   9  79 E3        30.20S
$$
MNZ029>031-032-039>041-046>048-054>057-064-191000-
   West Central Minnesota

CITY           SKY/WX    TMP DP  RH WIND       PRES   REMARKS
FERGUS FALLS   CLOUDY    21  18  86 S10       30.19F WCI  10
WHEATON        CLOUDY    21  19  93 SE12      30.18S WCI   9
MORRIS         CLOUDY    23  21  93 SE9       30.17S FOG     WCI  13
ALEXANDRIA     CLOUDY    20  18  92 SE9       30.18S FOG     WCI   9
ELBOW LAKE     CLOUDY    21  19  93 SE13      30.16S WCI   9
WADENA         CLOUDY    18  16  93 NW7       30.17F WCI   8
GLENWOOD       CLOUDY    21  19  93 SE8       30.19S FOG     WCI  12
APPLETON       CLOUDY    25  21  86 SE3       30.19S
BENSON         CLOUDY    23  21  93 S9        30.19S WCI  13
ORTONVILLE     PTCLDY    25  21  86 SE8       30.16F FOG     WCI  16
MADISON        PTCLDY    28  27  93 SE5       30.18S WCI  23
WILLMAR        CLOUDY    25  21  86 SE8       30.22S FOG     WCI  16
$$
MNZ033>034-036-042>043-049>051-058-059-191000-
   Central Minnesota

CITY           SKY/WX    TMP DP  RH WIND       PRES   REMARKS
ST CLOUD       LGT SNOW  22  17  81 SE7       30.24R WCI  13
SAUK CENTRE    CLOUDY    20  17  89 SE8       30.21S WCI  10
PAYNESVILLE    CLOUDY    19  17  95 E7        30.22S WCI   9
AITKIN         CLOUDY    21  16  79 CALM      30.21S
PINE RIVER     LGT SNOW  19  16  86 SE6       30.23S WCI  11
BRAINERD       LGT SNOW  19  15  84 S6        30.22S FOG     WCI  11
STAPLES        FLURRIES  18  16  93 SE5       30.19S WCI  11
LONG PRAIRIE   CLOUDY    19  18  93 SE8       30.20S WCI   9
LITTLE FALLS   LGT SNOW  21  18  86 SE6       30.23S WCI  14
LITCHFIELD     LGT SNOW  21  21 100 SE5       30.23S WCI  15
BUFFALO        FLURRIES  21  17  83 SE5       30.26S WCI  15
MAPLE LAKE     CLOUDY    22  19  89 SE3       30.25S
$$
MNZ037-044-045-052-053-191000-
   East Central Minnesota

CITY           SKY/WX    TMP DP  RH WIND       PRES   REMARKS
PRINCETON      LGT SNOW  21  18  86 CALM      30.25S
MORA           CLOUDY    19  16  86 S7        30.27S WCI  10
CAMBRIDGE      CLOUDY    23  16  74 S3        30.25S
RUSH CITY      CLOUDY    22  18  85 S3        30.27S
MOOSE LAKE     CLOUDY    21  19  93 S3        30.23S
HINCKLEY       CLOUDY    23  21  93 CALM      30.25F
CLOQUET        CLOUDY    19  18  93 SW5       30.23S WCI  13
MCGREGOR       CLOUDY    21  19  93 S3        30.23F
$$
MNZ071>073-080-081-089-090-097-098-191000-
   Southwest Minnesota

CITY           SKY/WX    TMP DP  RH WIND       PRES   REMARKS
MONTEVIDEO     CLOUDY    25  25 100 S6        30.20F WCI  18
GRANITE FALLS  CLOUDY    25  22  91 SE7       30.21F WCI  17
CANBY          CLOUDY    26  25  96 SE5       30.18S FOG     WCI  21
MARSHALL       CLOUDY    27  23  86 S3        30.18F
REDWOOD FALLS  CLOUDY    25  22  88 SE10      30.22S WCI  15
OLIVIA         CLOUDY    27  23  86 SE8       30.21S WCI  18
PIPESTONE      CLOUDY    27  27 100 SW3       30.15S FOG
WINDOM         CLOUDY    27  25  93 CALM      30.20S FOG
WORTHINGTON    CLOUDY    27  25  93 S8        30.18S WCI  18
JACKSON        CLOUDY    28  27  93 S6        30.20S WCI  22
TRACY          CLOUDY    28  27  96 CALM      30.19S FOG
SLAYTON        CLOUDY    27  27 100 CALM      30.17F FOG
$$
MNZ065>067-074>077-082>085-091>093-191000-
   South Central Minnesota

CITY           SKY/WX    TMP DP  RH WIND       PRES   REMARKS
MANKATO        CLOUDY    25  18  74 SE7       30.24S WCI  17
NEW ULM        CLOUDY    25  23  93 SE3       30.23S
ST JAMES       MOCLDY    27  23  86 SE6       30.24S WCI  20
FAIRMONT       CLOUDY    25  18  74 S8        30.22S WCI  16
GLENCOE        CLOUDY    23  21  91 SE6       30.24S WCI  16
FARIBAULT      CLOUDY    23  19  86 CALM      30.25F
OWATONNA       CLOUDY    23  18  80 SE3       30.24F
WASECA         CLOUDY    23  21  93 SE5       30.26S WCI  17
ALBERT LEA     CLOUDY    25  21  86 S6        30.24S WCI  18
$$
MNZ078>079-086>088-094>096-191000-
   Southeast Minnesota

CITY           SKY/WX    TMP DP  RH WIND       PRES   REMARKS
ROCHESTER      CLOUDY    22  18  85 S6        30.25S WCI  14
RED WING       CLOUDY    23  18  80 CALM      30.28S
STANTON        CLOUDY    23  18  80 CALM      30.25F
DODGE CENTER   CLOUDY    21  19  93 S5        30.24S WCI  15
WINONA         CLOUDY    25  18  74 CALM      30.31S
AUSTIN         CLOUDY    23  19  86 S5        30.25S WCI  17
PRESTON        CLOUDY    22  17  84 S3        30.26S
$$
ABBREVIATIONS USED IN REMARKS
   TC - TEMPERATURES IN CELSIUS
  WCI - WIND CHILL INDEX
   HX - HEAT INDEX
  VSB - VISIBILITY
$$


USA.gov is the U.S. government's official web portal to all federal, state and local government web resources and services.